Regional Weather Roundup
Issued by NWS

Home | Current Version | Previous Version | Text Only | Print | Product List | Glossary Off
Versions: 1 2 3 4 5 6 7 8 9 10 11 12 13 14 15 16 17 18 19 20 21 22 23 24 25 26 27

000
ASUS45 KBOU 240007
RWRCO

WEATHER ROUNDUP FOR COLORADO
NATIONAL WEATHER SERVICE DENVER/BOULDER CO
600 PM MDT TUE AUG 23 2016

NOTE: "FAIR" INDICATES FEW OR NO CLOUDS BELOW 12000 FEET WITH NO
SIGNIFICANT WEATHER AND/OR OBSTRUCTIONS TO VISIBILITY.

COZ001>005-013-030-031-240100-
...NORTHWEST COLORADO...

CITY           SKY/WX    TMP DP  RH WIND       PRES   REMARKS
CRAIG          FAIR      76  32  20 W9        30.13R
HAYDEN         FAIR      75  30  19 W6        30.16R
MEEKER         CLOUDY    67  39  35 SE24G30   30.18S
MOUNT WERNER   NOT AVBL
STEAMBOAT SPGS FAIR      71  33  24 E5        30.18S
WALDEN         FAIR      59  36  41 E12       30.31R
$$

COZ006>008-011-240100-
...WEST CENTRAL VALLEYS...

CITY           SKY/WX    TMP DP  RH WIND       PRES   REMARKS
GRAND JUNCTION FAIR      77  48  35 SW7       30.10S
MONTROSE       CLOUDY    67  48  50 S16       30.21R
EAGLE          MOSUNNY   73  34  23 W7        30.20F
RIFLE          FAIR      79  42  26 VRB5      30.11S
DELTA          PTSUNNY   73  49  43 SW8       30.17R
NUCLA          LGT RAIN  55  52  88 SE3       30.31S
$$

COZ017>023-064>068-240100-
...SOUTHWEST COLORADO...

CITY           SKY/WX    TMP DP  RH WIND       PRES   REMARKS
DURANGO        FAIR      56  52  86 N10       30.29F
CORTEZ         LGT RAIN  56  54  93 E8        30.29S FOG
PAGOSA SPRINGS LGT RAIN  52  49  91 N5G16     30.36F
TELLURIDE      RAIN      49  47  92 CALM      30.43S
WOLF CREEK PAS HVY RAIN  34  34 100 SW12      30.59S VSB<1/4 WCI  25
$$

COZ009-010-012-014-032>034-037-058>063-240100-
...CENTRAL COLORADO...

CITY           SKY/WX    TMP DP  RH WIND       PRES   REMARKS
ASPEN          LGT RAIN  58  49  72 S15G21    30.31R
BUENA VISTA    LGT RAIN  55  49  81 SE7       30.36R
COPPER MTN     CLOUDY    48  32  53 S3        30.58R
BERTHOUD PASS  CLOUDY    41  28  60 E16       30.60S
COTTONWOOD PAS LGT RAIN  52  43  71 SE12      30.45S
GUNNISON       CLOUDY    63  43  48 SE12G21   30.34R
KREMMLING      FAIR      70  25  18 N5        30.25S
LEADVILLE      LGT RAIN  48  42  80 NW5       30.45R
MONARCH PASS   LGT RAIN  37  37 100 NE10      30.66S VSB 1/4
SALIDA         CLOUDY    56  53  88 S6        30.42R
SUNLIGHT       FAIR      55  39  54 CALM      30.51S
WILKERSON PASS RAIN      43  37  81 S8        30.57R
$$

COZ069>075-240100-
...SAN LUIS VALLEY/SANGRE DE CRISTO MOUNTAINS...

CITY           SKY/WX    TMP DP  RH WIND       PRES   REMARKS
ALAMOSA        FAIR      61  44  53 W14       30.27R
LA VETA PASS   PTSUNNY   59  37  44 W10G17    30.42S THUNDER
SAGUACHE       PTSUNNY   61  41  48 NW10G20   30.31R
$$

COZ035-036-038>040-240100-
...NORTHERN COLORADO FRONT RANGE...

CITY           SKY/WX    TMP DP  RH WIND       PRES   REMARKS
DENVER INTL AP CLOUDY    78  38  23 W16       30.10R
DMNS CITY PARK   N/A     74  40  28 SW15      30.12R
AURORA         PTSUNNY   74  41  30 W13       30.13S
FRONT RANGE AP CLOUDY    81  37  21 W14G22    30.12R
ERIE MUNI ARPT CLOUDY    78  34  20 CALM      30.12R
BOULDER MUN AP CLOUDY    77  37  24 N6        30.11R
CENTENNIAL     CLOUDY    72  41  32 W13       30.15R
BROOMFIELD     PTSUNNY   75  39  27 S10       30.13S
FORT COLLINS   FAIR      75  39  27 NW15      30.08R
LONGMONT       CLOUDY    79  39  24 NW7       30.12R
$$

COZ041-046-047-076>085-087-088-240100-
...PIKES PEAK/PALMER DIVIDE AND SOUTHERN FOOTHILLS...

CITY           SKY/WX    TMP DP  RH WIND       PRES   REMARKS
COLO. SPRINGS  CLOUDY    72  40  31 NW7       30.16S
A. F. ACADEMY  FAIR      69  38  32 W9        30.18F
SCHRIEVER AFB  NOT AVBL
ELLICOTT       NOT AVBL
FALCON         CLOUDY    69  38  32 W12G18    30.20S
FORT CARSON    NOT AVBL
LIMON          FAIR      82  27  13 N13       30.07S
MONUMENT HILL  PTSUNNY   64  39  39 W10       30.24S
TRINIDAD       CLOUDY    78  42  27 NW15G24   30.08R
$$

COZ042>045-048>051-090-091-240100-
...NORTHEAST COLORADO...

CITY           SKY/WX    TMP DP  RH WIND       PRES   REMARKS
GREELEY ARPT   FAIR      79  39  24 W17G24    30.06R
AKRON          FAIR      83  25  12 NE12      30.03R
BURLINGTON     FAIR      89  24   9 N15       29.98R
WRAY           NOT AVBL
STERLING       FAIR      82  36  18 NE9       29.97S
HOLYOKE        FAIR      86  32  14 N12       29.96S
FORT MORGAN    FAIR      83  24  11 N8        30.02S
$$

COZ086-089-092>099-240100-
...SOUTHEAST COLORADO...

CITY           SKY/WX    TMP DP  RH WIND       PRES   REMARKS
PUEBLO         PTSUNNY   84  35  17 NW15      30.02R
LA JUNTA       FAIR      90  37  15 E7        29.95S
LAMAR          FAIR      95  37  13 NE3       29.88F
SPRINGFIELD      N/A     87  48  25 E6        29.97S
$$




USA.gov is the U.S. government's official web portal to all federal, state and local government web resources and services.